TimeEDT,TemperatureF,Dew PointF,Humidity,Sea Level PressureIn,VisibilityMPH,Wind Direction,Wind SpeedMPH,Gust SpeedMPH,PrecipitationIn,Events,Conditions,WindDirDegrees,DateUTC
12:58 AM,28.0,21.6,77,30.26,10.0,West,1.2,-,N/A,,Clear,280,2014-03-14 04:58:00
1:58 AM,26.8,21.7,81,30.28,10.0,Calm,Calm,-,N/A,,Clear,0,2014-03-14 05:58:00
2:58 AM,25.2,20.5,82,30.29,10.0,Calm,Calm,-,N/A,,Clear,0,2014-03-14 06:58:00
3:58 AM,26.6,20.5,78,30.29,10.0,Calm,Calm,-,N/A,,Clear,0,2014-03-14 07:58:00
4:58 AM,24.8,20.3,83,30.29,10.0,Calm,Calm,-,N/A,,Clear,0,2014-03-14 08:58:00
5:58 AM,24.4,20.1,84,30.31,10.0,Calm,Calm,-,N/A,,Clear,0,2014-03-14 09:58:00
6:58 AM,22.6,19.2,87,30.33,10.0,Calm,Calm,-,N/A,,Clear,0,2014-03-14 10:58:00
7:58 AM,23.0,19.0,85,30.34,10.0,Variable,1.2,-,N/A,,Clear,0,2014-03-14 11:58:00
8:58 AM,30.0,22.3,73,30.36,10.0,Calm,Calm,-,N/A,,Clear,0,2014-03-14 12:58:00
9:58 AM,43.3,15.3,32,30.36,10.0,Variable,4.6,-,N/A,,Clear,0,2014-03-14 13:58:00
10:58 AM,47.5,15.6,28,30.35,10.0,South,6.9,-,N/A,,Clear,180,2014-03-14 14:58:00
11:58 AM,51.4,14.4,23,30.35,10.0,SSW,8.1,-,N/A,,Clear,200,2014-03-14 15:58:00
12:58 PM,54.5,16.7,23,30.33,10.0,SW,11.5,17.3,N/A,,Clear,220,2014-03-14 16:58:00
1:58 PM,57.0,17.8,22,30.30,10.0,SW,12.7,17.3,N/A,,Clear,230,2014-03-14 17:58:00
2:58 PM,59.2,18.3,20,30.25,10.0,SW,13.8,18.4,N/A,,Clear,230,2014-03-14 18:58:00
3:58 PM,60.4,17.8,19,30.22,10.0,SW,18.4,21.9,N/A,,Clear,230,2014-03-14 19:58:00
4:58 PM,61.2,21.0,21,30.19,10.0,SSW,17.3,-,N/A,,Clear,210,2014-03-14 20:58:00
5:58 PM,60.8,19.8,21,30.17,10.0,SSW,12.7,-,N/A,,Clear,200,2014-03-14 21:58:00
6:58 PM,59.9,21.2,22,30.16,10.0,SSW,9.2,-,N/A,,Clear,210,2014-03-14 22:58:00
7:58 PM,57.4,27.3,32,30.16,10.0,SSW,11.5,-,N/A,,Clear,200,2014-03-14 23:58:00
8:58 PM,54.5,28.8,37,30.17,10.0,South,6.9,-,N/A,,Clear,190,2014-03-15 00:58:00
9:58 PM,52.7,33.8,49,30.14,10.0,SSW,8.1,-,N/A,,Clear,200,2014-03-15 01:58:00
10:58 PM,52.0,36.5,56,30.14,10.0,SSW,11.5,-,N/A,,Partly Cloudy,210,2014-03-15 02:58:00
11:58 PM,52.2,38.1,59,30.14,10.0,SW,11.5,-,N/A,,Scattered Clouds,220,2014-03-15 03:58:00